Location: Dayton
(39.7590°N, 84.1920°W)
Time: 18:27:58
(UTC-04:00)

Daily predictions for brighter satellites

Satellite Brightness Start Highest point End
(mag) Time Altitude Azimuth Time Altitude Azimuth Time Altitude Azimuth
Cosmos 1818 4.2 20:12:52 10° NNW 20:17:58 39° NE 20:23:01 10° ESE
ISS -2.3 20:24:00 10° S 20:26:27 20° SE 20:28:54 10° E
Cosmos 1821 Rocket 4.2 20:20:32 10° S 20:26:56 82° W 20:33:18 10° N
In-Cosmos 22 4.2 20:23:30 10° N 20:28:43 55° ENE 20:33:52 10° SSE
GP-B 4.4 20:26:42 10° SE 20:29:54 20° ENE 20:33:07 10° NNE
Cosmos 2344 3.8 20:22:46 10° SW 20:30:26 82° NW 20:39:01 10° NNE
Cosmos 1378 3.9 20:28:17 10° NNW 20:32:00 58° W 20:35:39 10° S
Cosmos 1844 Rocket 4.4 20:27:29 10° SW 20:32:40 37° WNW 20:37:52 10° N
Meteor 1-4 Rocket 3.2 20:30:22 10° SSE 20:33:29 31° E 20:36:36 10° NNE
USA 186 3.1 20:33:16 11° E 20:33:34 11° ENE 20:34:16 10° NE
CZ-2D R/B 4.1 20:30:20 10° SE 20:33:44 30° ENE 20:37:10 10° N
Cosmos-2242 4.3 20:32:05 10° SE 20:35:07 19° E 20:38:10 10° NE
USA 215 4.3 20:30:52 10° ENE 20:35:45 22° ESE 20:40:36 10° S
Cosmos 1805 3.4 20:33:37 10° SSE 20:37:22 49° E 20:41:09 10° NNE
RESURS DK-1 3.0 20:33:32 10° NNW 20:37:37 60° WSW 20:41:40 10° S
Resurs 01 Rocket 1.8 20:33:32 10° SSE 20:37:47 51° ENE 20:42:05 10° N
FREGAT/IRIS 3.7 20:37:46 10° S 20:40:44 50° W 20:43:44 10° NNW
FENGYUN 3A 3.7 20:37:40 10° SSE 20:43:05 87° ENE 20:48:31 10° NNW
Cosmos 1544 3.1 20:40:28 10° S 20:44:03 59° E 20:47:41 10° NNE
Cosmos 1605 Rocket 4.0 20:38:51 10° S 20:45:05 76° E 20:51:27 10° N
Lacrosse 5 3.0 20:40:19 10° WSW 20:45:09 45° NW 20:50:02 10° NNE
Cosmos 1833 Rocket 3.3 20:40:05 10° N 20:45:19 38° ENE 20:50:10 12° SE
Spot 2 Rocket 3.5 20:45:36 10° SSE 20:50:39 68° ENE 20:55:45 10° N
Cosmos 2278 Rocket 2.9 20:46:47 10° SW 20:52:22 60° WNW 20:58:00 10° NNE
Cosmos 1867 3.5 20:48:03 10° SSW 20:53:26 69° ESE 20:58:53 10° NE
Cosmos 1470 3.6 20:51:03 10° SSE 20:54:28 28° E 20:57:55 10° NNE
BREEZE-M DEB (TANK) 3.2 20:55:14 10° SSW 20:58:10 44° SE 21:06:17 10° ENE
Cosmos 1733 4.0 20:54:50 10° SSE 20:58:11 29° E 21:01:34 10° NNE
ATLAS 5 CENTAUR R/B 1.9 20:54:43 10° S 20:59:09 48° ESE 21:03:57 10° NE
Cosmos 2123 Rocket 4.3 20:54:10 10° NNW 21:00:27 71° W 21:06:40 10° S
SJ-6B 4.4 20:58:23 10° SSW 21:01:49 35° W 21:05:16 10° NNW
Timation 1 Rocket 4.4 20:57:32 10° SSW 21:03:34 86° WNW 21:09:37 10° NNE
Cosmos 1340 Rocket 3.7 21:02:30 10° NNE 21:06:04 29° ENE 21:07:16 25° ESE
Envisat 3.6 21:05:45 19° SE 21:08:51 37° ENE 21:13:30 10° N
Cosmos 2297 3.7 21:03:42 10° SSW 21:09:24 87° ESE 21:15:11 10° NNE
H-2A R/B 3.3 21:06:36 10° S 21:10:27 62° W 21:14:23 10° NNW
Cosmos 1802 Rocket 4.4 21:05:06 10° SSE 21:10:41 39° E 21:16:20 10° NNE
Resurs 1-3 3.8 21:11:19 10° S 21:15:41 71° WSW 21:20:04 10° NNW
Cosmos 1125 Rocket 3.8 21:13:31 10° SSW 21:18:41 71° WNW 21:23:54 10° NNE
Cosmos 1408 Rocket 3.5 21:16:54 10° N 21:21:23 76° E 21:25:11 14° SSE
Cosmos 1048 Rocket 3.9 21:17:31 10° NNW 21:22:40 88° WSW 21:26:59 15° SSE
Geosat 3.9 21:17:41 10° NNE 21:22:44 83° ESE 21:27:45 10° SSW
Cosmos 2082 Rocket 2.1 21:17:47 10° NNW 21:23:31 87° ENE 21:27:53 18° SSE
ERS-1 Rocket 3.9 21:23:19 27° E 21:24:09 28° ENE 21:28:24 10° N
CZ-3 Stage 3 3.9 20:39:45 10° WSW 21:24:13 58° SSW 21:29:15 25° ESE
SeaSat 1 3.5 21:20:08 10° S 21:24:49 44° WSW 21:29:32 10° NW
CZ-2C R/B 4.3 21:23:50 10° NW 21:24:58 14° W 21:26:05 10° SW
Cosmos 2061 Rocket 4.1 21:19:46 10° S 21:25:59 58° E 21:32:17 10° NNE
ALOS 4.3 21:26:11 10° SSW 21:30:10 28° W 21:34:11 10° NW
Timation 2 Rocket 3.8 21:25:41 10° NNW 21:32:00 82° ENE 21:35:50 24° SSE
Cosmos 2151 4.5 21:30:16 10° NNE 21:32:36 21° NE 21:32:36 21° NE
Cosmos 1842 Rocket 4.1 21:34:36 38° ENE 21:34:36 38° ENE 21:38:15 10° NNE
Cosmos 1953 3.8 21:32:26 10° SSW 21:36:15 39° WNW 21:40:05 10° N
GPS 2-05 Rocket1 3.5 21:33:02 10° WSW 21:36:15 41° S 21:36:15 41° S
Cosmos 1271 Rocket 2.8 21:32:43 10° S 21:36:44 83° WNW 21:40:46 10° N
Cosmos 1459 Rocket 3.9 21:30:33 10° S 21:36:48 77° E 21:42:58 10° N
Helios 1B rocket 2.6 21:34:35 10° N 21:38:43 73° WNW 21:42:48 10° SSW
BREEZE-M DEB (TANK) 4.1 21:39:56 10° NNW 21:41:29 20° NNE 21:41:29 20° NNE
SAR-Lupe-4 4.4 21:41:13 22° SSW 21:43:13 49° W 21:46:44 10° NNW
Cosmos 2173 Rocket 3.9 21:37:39 10° S 21:43:49 85° E 21:50:07 10° N
Cosmos 1939 Rocket 2.8 21:44:15 61° ESE 21:44:45 70° ENE 21:48:54 10° N
YAOGAN 6 4.1 21:47:37 26° NNE 21:47:37 26° NNE 21:49:40 10° N
Meteor 1-29 3.3 21:43:33 10° N 21:47:00 65° WNW 21:49:25 18° SSW
Abrixas 4.4 21:45:03 10° W 21:46:58 23° WSW 21:46:58 23° WSW
Cosmos 1674 3.7 21:45:37 10° NNW 21:49:14 45° W 21:51:30 20° SSW
CZ-4B DEB 3.5 21:52:56 49° W 21:52:56 49° W 21:55:44 10° NNW
COSMOS 2487 4.2 21:52:23 10° NW 21:55:33 30° WSW 21:56:56 22° SW
Helios 1A 4.0 21:53:10 18° SSW 21:55:52 43° W 21:59:53 10° NNW
Lacrosse 5 rocket 1.4 21:54:53 10° NW 21:58:14 63° NNW 21:58:14 63° NNW
Meteor 2-17 Rocket 4.3 21:54:01 10° S 22:00:09 82° E 22:06:20 10° N
Cosmos 2251 Rocket 3.5 21:55:49 10° NNW 22:01:07 62° ENE 22:01:24 60° E
ISS -2.3 21:59:36 10° WSW 22:02:04 37° WNW 22:02:04 37° WNW
CZ-3B DEB 4.2 22:04:16 10° W 22:10:36 23° NNW 22:14:19 10° NNE
Cosmos 2369 Rocket 4.4 22:18:38 12° NE 22:18:38 12° NE 22:19:04 10° NE
Cosmos 2016 Rocket 4.1 22:09:36 10° SSW 22:15:49 75° W 22:22:00 10° N
USA 215 3.1 22:12:41 10° NE 22:19:15 90° SSW 22:25:47 10° SW
MetOp-B 4.4 22:23:52 56° NNE 22:23:52 56° NNE 22:28:21 10° N
Cosmos 1725 Rocket 3.8 22:23:25 59° S 22:24:44 88° E 22:30:58 10° N
Cosmos 1833 Rocket 4.3 22:24:18 10° NW 22:29:03 29° WSW 22:31:55 19° SSW
SPOT 5 3.7 22:33:36 49° NNE 22:33:36 49° NNE 22:37:34 10° N
NOAA 11 4.4 22:34:17 62° N 22:34:17 62° N 22:38:53 10° N
Cosmos 494 Rocket 4.5 22:33:39 10° NNW 22:38:10 56° WNW 22:38:10 56° WNW
ATLAS 5 CENTAUR R/B 4.0 22:40:14 10° W 22:44:06 24° NW 22:48:17 10° NNE
Terra 4.3 22:47:55 13° NNE 22:47:55 13° NNE 22:48:35 10° NNE
Tsikada Rocket 4.0 22:39:23 10° N 22:45:35 73° W 22:45:44 73° WSW
USA 267 3.9 22:50:51 44° NE 22:50:59 44° NNE 22:57:05 10° NW
H-2A R/B 3.6 23:02:14 30° N 23:02:14 30° N 23:04:53 10° N
ERS-1 Rocket 4.5 23:03:18 32° W 23:03:18 32° W 23:07:19 10° NNW
MOS 1-B Rocket 4.5 23:04:48 75° NNE 23:04:48 75° NNE 23:11:17 10° N
ARGOS 4.4 23:14:10 37° NW 23:14:10 37° NW 23:17:27 10° NNW
